Starlink 31155

decayed
NORAD ID: 58728 Int'l Des: 2024-005 Owner: SPXS Country: US Constellation: starlink
LEOCIRCULAR
グループ

Starlink 31155について

説明を読み込み中...

高度履歴

Altitude vs Time

uPlot chart will show altitude changes over time

軌道要素

1 58728U 24005A 25090.40950584 .02605097 89416-5 11712-2 0 9998
2 58728 42.9870 250.9910 0010941 323.4490 128.5854 16.21029081 69208
Epoch: Mar 31, 2025 • Age: 8120 hours

現在のステータス

Position data unavailable
打ち上げ日 Jan 7, 2024
運用期間 2.1 years
落下予定日 Mar 31, 2025
タイプ internet

技術仕様

分類 Payload
質量 730.00 kg
乾燥質量 700.00 kg
総質量 730.00 kg
長さ 0.30 m
直径 4.10 m
スパン 29.00 m
形状 Box + pan
製造者 SPXS
バスタイプ Starlink V2M
フェーズステータス Unknown Transfer Status
所有者/国 SPXS/US

大規模コンステレーション

Loading constellations...